This demonstration page uses our WeatherBlox Daily Observations layout. Learn more.

Left ArrowRight Arrow

Hourly Observations for February 24, 2020

Temp ( °F °C ) Dew Point ( °F °C ) Humidity (%) Winds ( mph kmh ) Pressure ( in mb ) Visibility ( mi km ) Precip ( " mm )
12:56 am 00:56 Clear 33 0.6 26 -3.3 75 75 N 7 11 29.94 1014 10 16 0.00 0.00
1:56 am 01:56 Clear 32 0 25 -3.9 75 75 N 8 13 29.94 1014 10 16 0.00 0.00
2:56 am 02:56 Clear 31 -0.6 26 -3.3 82 82 N 10 17 29.91 1013 10 16 0.00 0.00
3:56 am 03:56 Partly Cloudy 31 -0.6 26 -3.3 82 82 N 8 13 29.89 1012 10 16 0.00 0.00
4:56 am 04:56 Clear 30 -1.1 26 -3.3 85 85 N 12 19 29.89 1012 10 16 0.00 0.00
5:56 am 05:56 Clear 26 -3.3 24 -4.4 92 92 N 7 11 29.91 1013 10 16 0.00 0.00
6:56 am 06:56 Clear 25 -3.9 23 -5 92 92 N 6 9 29.91 1013 10 16 0.00 0.00
7:56 am 07:56 Sunny 25 -3.9 23 -5 92 92 NNW 6 9 29.92 1013 10 16 0.00 0.00
8:56 am 08:56 Sunny 30 -1.1 26 -3.3 85 85 NE 7 11 29.91 1013 10 16 0.00 0.00
9:56 am 09:56 Sunny 34 1.1 25 -3.9 70 70 NE 7 11 29.91 1013 10 16 0.00 0.00
10:56 am 10:56 Sunny 39 3.9 22 -5.6 50 50 ENE 8 13 29.89 1012 10 16 0.00 0.00
11:56 am 11:56 Sunny 43 6.1 22 -5.6 43 43 E 12 19 29.87 1011 10 16 0.00 0.00
12:56 pm 12:56 Sunny 46 7.8 21 -6.1 37 37 VRB 5 7 29.85 1011 10 16 0.00 0.00
1:56 pm 13:56 Mostly Cloudy 47 8.3 22 -5.6 37 37 NE 5 7 29.83 1010 10 16 0.00 0.00
2:56 pm 14:56 Mostly Cloudy 50 10 21 -6.1 32 32 NNW 6 9 29.82 1010 10 16 0.00 0.00
3:56 pm 15:56 Partly Cloudy 49 9.4 20 -6.7 32 32 Calm 29.83 1010 10 16 0.00 0.00
4:56 pm 16:56 Cloudy 48 8.9 22 -5.6 36 36 ENE 6 9 29.85 1011 10 16 0.00 0.00
5:56 pm 17:56 Cloudy 43 6.1 23 -5 45 45 ENE 12 19 29.87 1011 10 16 0.00 0.00
6:56 pm 18:56 Cloudy 40 4.4 21 -6.1 47 47 ENE 8 13 29.89 1012 10 16 0.00 0.00
7:56 pm 19:56 Cloudy 37 2.8 21 -6.1 52 52 E 9 15 29.90 1013 10 16 0.00 0.00
8:56 pm 20:56 Cloudy 36 2.2 22 -5.6 57 57 E 8 13 29.91 1013 10 16 0.00 0.00
9:56 pm 21:56 Cloudy 35 1.7 22 -5.6 59 59 E 12 19 29.93 1014 10 16 0.00 0.00
10:56 pm 22:56 Cloudy 34 1.1 23 -5 64 64 E 6 9 29.94 1014 10 16 0.00 0.00
11:56 pm 23:56 Cloudy 33 0.6 24 -4.4 70 70 N 7 11 29.96 1015 10 16 0.00 0.00

Powered by AerisWeather